Preview of NWS' New Version of Forecast
This preview is not operational and should not be used for support decisions.

Regional Weather Roundup (RWR)

Issued by National Weather Service (NWS)

                            
000
ASUS45 KBOU 180910
RWRCO 

WEATHER ROUNDUP FOR COLORADO
NATIONAL WEATHER SERVICE DENVER/BOULDER CO
200 AM MST MON FEB 18 2019

NOTE: "FAIR" INDICATES FEW OR NO CLOUDS BELOW 12000 FEET WITH NO
SIGNIFICANT WEATHER AND/OR OBSTRUCTIONS TO VISIBILITY.

COZ001>005-013-030-031-181000-
...NORTHWEST COLORADO...
  
CITY           SKY/WX    TMP DP  RH WIND       PRES   REMARKS
CRAIG          FAIR      10   2  69 NE3       29.83F                  
HAYDEN         FAIR      11   2  67 E10       29.82F WCI  -3          
MEEKER         CLOUDY    16   6  65 CALM      29.80S                  
RANGELY        CLOUDY    19  13  79 W6        29.86S WCI  11          
RABBIT EARS PA CLOUDY     5   1  85 S7        29.70F WCI  -7          
STEAMBOAT SPGS CLOUDY     6  -1  73 CALM      29.81F                  
WALDEN         FAIR      -8 -13  77 SE5       29.83S WCI -19          
$$

COZ006>008-011-181000-
...WEST CENTRAL VALLEYS...
  
CITY           SKY/WX    TMP DP  RH WIND       PRES   REMARKS
GRAND JUNCTION FLURRIES  27  26  96 N7        29.85R WCI  19          
MONTROSE       FAIR      24  11  57 SE8       29.86S WCI  15          
EAGLE          FAIR      12   6  77 E6        29.85S WCI   3          
RIFLE          MOCLDY    21  12  68 SE5       29.82S WCI  15          
DELTA          MOCLDY    31  20  65 N8        29.86S WCI  23          
NUCLA          MOCLDY    27  16  63 CALM      29.90R                  
$$

COZ017>023-064>068-181000-
...SOUTHWEST COLORADO...
  
CITY           SKY/WX    TMP DP  RH WIND       PRES   REMARKS
DURANGO        LGT SNOW  21  20  96 VRB3      29.86F VSB 1            
CORTEZ         LGT SNOW  18  15  88 E5        29.87F FOG     WCI  11  
PAGOSA SPRINGS LGT SNOW  20  20  99 CALM      29.86S VSB 3/4          
TELLURIDE      FAIR      14   3  62 CALM      29.79S                  
WOLF CREEK PAS CLOUDY     1   1 100 SW16G30   29.76S WCI -18          
$$

COZ009-010-012-014-032>034-037-058>063-181000-
...CENTRAL COLORADO...
  
CITY           SKY/WX    TMP DP  RH WIND       PRES   REMARKS
ASPEN          FAIR      14   2  58 S6        29.75S WCI   5          
BUENA VISTA    LGT SNOW  13  10  85 E5        29.87R VSB 1   WCI   6  
COPPER MTN     CLOUDY     5  -6  61 SE20      29.66F WCI -15          
BERTHOUD PASS  CLOUDY    -4 -15  59 SE20G26   29.66F WCI -27          
COTTONWOOD PAS LGT SNOW  10   7  85 E5        29.78S WCI   2          
GUNNISON       FAIR      -1  -5  82 SW5       29.85R WCI -11          
GRANBY         FAIR       2  -3  79 CALM      29.82S                  
KREMMLING      FAIR       3   0  85 CALM      29.85F                  
LEADVILLE      LGT SNOW   5   3  91 S3        29.74F FOG              
MONARCH PASS   CLOUDY     0  -6  78 E16       29.80F WCI -21          
SALIDA         CLOUDY    15  12  85 SE14G24   29.96R VSB 1   WCI   1  
SUNLIGHT       MOCLDY     5   1  85 MISG      29.74F                  
WILKERSON PASS CLOUDY     0  -6  78 S12G18    29.76F HAZE    WCI -18  
$$

COZ069>075-181000-
...SAN LUIS VALLEY/SANGRE DE CRISTO MOUNTAINS...
  
CITY           SKY/WX    TMP DP  RH WIND       PRES   REMARKS
ALAMOSA        FAIR      14  11  87 S12       29.83F WCI   0          
DEL NORTE      FAIR      10   7  86 W6        29.84S WCI   1          
LA VETA PASS   NOT AVBL                                               
SAGUACHE       CLOUDY    14  12  92 CALM      29.84F                  
$$

COZ035-036-038>040-181000-
...NORTHERN COLORADO FRONT RANGE...
  
CITY           SKY/WX    TMP DP  RH WIND       PRES   REMARKS
DENVER INTL AP LGT SNOW  10   5  80 E15       30.07S WCI  -7          
AURORA         MOCLDY    10   6  85 E14       30.06S WCI  -6          
FRONT RANGE AP NOT AVBL                                               
ERIE MUNI ARPT FLURRIES  14   6  70 E6        30.16S WCI   5          
BOULDER MUN AP FLURRIES  14   9  79 E5        30.09S WCI   6          
CENTENNIAL     FLURRIES  12   7  80 E9        30.03S WCI   0          
BROOMFIELD     CLOUDY    14   7  73 E6        30.08S WCI   5          
FORT COLLINS   FLURRIES  10   2  69 SE10      30.14R WCI  -4          
LONGMONT       CLOUDY    15   6  66 E9        30.14S HAZE    WCI   3  
$$

COZ041-046-047-076>085-087-088-181000-
...PIKES PEAK/PALMER DIVIDE AND SOUTHERN FOOTHILLS...
  
CITY           SKY/WX    TMP DP  RH WIND       PRES   REMARKS
COLO. SPRINGS  SNOW      11   8  88 S15       30.04R VSB 1/2 WCI  -5  
A. F. ACADEMY  CLOUDY    10   7  85 S12       30.00R WCI  -4          
SCHRIEVER AFB  NOT AVBL                                               
CHEYENNE MTN   LGT SNOW   8   6  92 SE15      29.92R VSB 7/8 WCI  -9  
ELLICOTT       NOT AVBL                                               
FALCON         LGT SNOW   9   5  83 E3        30.00R                  
FORT CARSON    LGT SNOW  12   8  86 S12       30.05S FOG     WCI  -2  
LIMON          FLURRIES   7   3  84 NE7       30.10R WCI  -5          
MONUMENT HILL  LGT SNOW   9   3  78 E8        29.98S WCI  -4          
CANON CITY     NOT AVBL                                               
WALSENBURG     NOT AVBL                                               
TRINIDAD       SNOW      16  13  88 N14       30.02R VSB 1/2 WCI   2  
$$

COZ042>045-048>051-090-091-181000-
...NORTHEAST COLORADO...
  
CITY           SKY/WX    TMP DP  RH WIND       PRES   REMARKS
GREELEY ARPT   FLURRIES  10   2  69 SE12      30.17S WCI  -5          
AKRON          FLURRIES   3  -3  76 N9        30.17R WCI -12          
BURLINGTON     CLOUDY     8   0  69 N14       30.19F WCI  -8          
WRAY           CLOUDY     9   1  72 N10       30.25S WCI  -6          
YUMA           CLOUDY     5   0  78 N12       30.21S WCI -11          
STERLING       CLOUDY     5  -4  66 NE10      30.22F WCI -10          
HOLYOKE        FAIR       5   0  78 NW9       30.25S WCI  -9          
FORT MORGAN    FLURRIES   5  -4  67 E7        30.19F WCI  -7          
$$

COZ086-089-092>099-181000-
...SOUTHEAST COLORADO...
  
CITY           SKY/WX    TMP DP  RH WIND       PRES   REMARKS
PUEBLO         LGT SNOW  15  11  83 SE9       30.14R VSB 1   WCI   3  
LA JUNTA       LGT SNOW  14  10  84 E12       30.19R FOG     WCI   0  
LAMAR          LGT SNOW  13   8  81 NE10      30.22R WCI   0          
SPRINGFIELD      N/A     11  10  96 NE10      30.16R WCI  -3          
$$